Location: Paderno d�Adda
(45.6667°N, 9.4333°E)
Time: 05:49:47
(UTC+00:00)

CENTAUR R/B - Pass Details

Date: 17 January 2021
Orbit: 742 x 1446 km, 63.5° (Epoch: 02 March)

Event Time Altitude Azimuth Distance (km) Brightness Sun altitude
Rises 06:00:12 0° 171° (S) 3,335 5.7 -10.0°
Reaches altitude 10° 06:03:02 10° 156° (SSE) 2,492 5.3 -9.5°
Maximum altitude 06:07:20 22° 107° (ESE) 1,931 5.3 -8.8°
Drops below altitude 10° 06:12:08 10° 60° (ENE) 2,836 5.5 -8.0°
Sets 06:15:35 0° 47° (NE) 3,930 6.0 -7.5°
